Location: Unspecified
(0.0000°N, 0.0000°E)
Time: 11:41:48
(UTC+00:00)

LightSail 2 - Pass Details

Date: 20 August 2019
Orbit: 696 x 730 km, 24.0° (Epoch: 07 December)

Event Time Altitude Azimuth Distance (km) Brightness Sun altitude
Exits shadow 05:12:23 17° 271° (W) 1,787 6.6 -12.5°
Maximum altitude 05:16:08 43° 205° (SSW) 999 5.6 -11.6°
Drops below altitude 10° 05:21:07 10° 133° (SE) 2,217 8.2 -10.4°
Sets 05:23:41 0° 127° (SE) 3,145 9.1 -9.7°
